Time,TemperatureF,DewpointF,PressureIn,WindDirection,WindDirectionDegrees,WindSpeedMPH,WindSpeedGustMPH,Humidity,HourlyPrecipIn,Conditions,Clouds,dailyrainin,SoftwareType,DateUTC
2013-03-07 00:00:00,37.8,33.1,29.90,NE,36,29.9,29.9,83,0.00,OVC,,0.00,WeatherDisplay:10.37,2013-03-07 05:00:00,
2013-03-07 00:01:00,37.8,32.8,29.90,North,5,38.0,38.0,82,0.00,OVC,,0.00,WeatherDisplay:10.37,2013-03-07 05:01:00,
2013-03-07 00:06:00,37.9,32.9,29.90,NNE,14,34.5,34.5,82,0.00,OVC,,0.00,WeatherDisplay:10.37,2013-03-07 05:06:00,
2013-03-07 00:11:00,38.0,33.0,29.90,North,5,31.1,31.1,82,0.00,OVC,,0.00,WeatherDisplay:10.37,2013-03-07 05:11:00,
2013-03-07 00:16:00,38.1,32.8,29.91,NNE,13,38.0,38.0,81,0.00,OVC,,0.00,WeatherDisplay:10.37,2013-03-07 05:16:00,
2013-03-07 00:21:00,38.1,32.8,29.91,NE,36,29.9,29.9,81,0.00,OVC,,0.00,WeatherDisplay:10.37,2013-03-07 05:21:00,
2013-03-07 00:27:00,38.1,32.8,29.91,North,10,26.5,26.5,81,0.00,OVC,,0.00,WeatherDisplay:10.37,2013-03-07 05:27:00,
2013-03-07 00:32:00,38.0,32.7,29.91,NNE,19,35.7,35.7,81,0.00,OVC,,0.00,WeatherDisplay:10.37,2013-03-07 05:32:00,
2013-03-07 00:37:00,37.8,33.1,29.91,NNE,26,26.5,26.5,83,0.00,OVC,,0.00,WeatherDisplay:10.37,2013-03-07 05:37:00,
2013-03-07 00:42:00,37.4,33.0,29.91,NNE,22,28.0,28.0,84,0.00,OVC,,0.00,WeatherDisplay:10.37,2013-03-07 05:42:00,
2013-03-07 00:47:00,37.1,33.0,29.91,NNE,16,27.6,27.6,85,0.00,OVC,,0.00,WeatherDisplay:10.37,2013-03-07 05:47:00,
2013-03-07 00:53:00,37.0,32.9,29.91,North,5,36.8,36.8,85,0.00,OVC,,0.00,WeatherDisplay:10.37,2013-03-07 05:53:00,
2013-03-07 00:58:00,36.9,33.1,29.91,North,9,34.5,34.5,86,0.00,OVC,,0.00,WeatherDisplay:10.37,2013-03-07 05:58:00,
2013-03-07 01:03:00,36.8,33.0,29.90,NNE,18,34.5,34.5,86,0.00,OVC,,0.00,WeatherDisplay:10.37,2013-03-07 06:03:00,
2013-03-07 01:08:00,36.7,32.9,29.90,NNE,19,35.7,35.7,86,0.00,OVC,,0.00,WeatherDisplay:10.37,2013-03-07 06:08:00,
2013-03-07 01:13:00,36.6,33.1,29.90,NNE,22,32.0,32.0,87,0.00,OVC,,0.00,WeatherDisplay:10.37,2013-03-07 06:13:00,
2013-03-07 01:19:00,36.6,33.1,29.91,NNE,22,34.5,34.5,87,0.00,OVC,,0.00,WeatherDisplay:10.37,2013-03-07 06:19:00,
2013-03-07 01:24:00,36.6,33.1,29.90,NNE,27,27.0,27.0,87,0.00,OVC,,0.00,WeatherDisplay:10.37,2013-03-07 06:24:00,
2013-03-07 01:29:00,36.6,33.1,29.90,NNE,19,29.9,29.9,87,0.00,OVC,,0.00,WeatherDisplay:10.37,2013-03-07 06:29:00,
2013-03-07 01:34:00,36.7,33.2,29.90,NNE,23,32.2,32.2,87,0.00,OVC,,0.00,WeatherDisplay:10.37,2013-03-07 06:34:00,
2013-03-07 01:39:00,36.8,33.0,29.89,North,360,28.8,28.8,86,0.00,OVC,,0.00,WeatherDisplay:10.37,2013-03-07 06:39:00,
2013-03-07 01:45:00,36.8,33.0,29.89,NNE,13,28.8,28.8,86,0.00,OVC,,0.00,WeatherDisplay:10.37,2013-03-07 06:45:00,
2013-03-07 01:50:00,36.9,33.1,29.89,North,360,26.5,26.5,86,0.00,OVC,,0.00,WeatherDisplay:10.37,2013-03-07 06:50:00,
2013-03-07 01:55:00,37.0,32.9,29.89,NNE,20,32.2,32.2,85,0.00,OVC,,0.00,WeatherDisplay:10.37,2013-03-07 06:55:00,
2013-03-07 02:00:00,37.0,32.6,29.90,NNE,16,29.9,29.9,84,0.00,OVC,,0.00,WeatherDisplay:10.37,2013-03-07 07:00:00,
2013-03-07 02:05:00,37.1,32.7,29.89,NNE,25,32.2,32.2,84,0.00,-SN,,0.00,WeatherDisplay:10.37,2013-03-07 07:05:00,
2013-03-07 02:10:00,37.1,32.7,29.89,NNE,26,29.9,29.9,84,0.00,-SN,,0.00,WeatherDisplay:10.37,2013-03-07 07:10:00,
2013-03-07 02:16:00,37.0,32.3,29.89,NNE,13,28.8,28.8,83,0.00,-SN,,0.00,WeatherDisplay:10.37,2013-03-07 07:16:00,
2013-03-07 02:21:00,37.1,32.4,29.88,NNE,17,30.0,30.0,83,0.00,-SN,,0.00,WeatherDisplay:10.37,2013-03-07 07:21:00,
2013-03-07 02:26:00,37.1,32.4,29.88,NNE,19,26.5,26.5,83,0.00,-SN,,0.00,WeatherDisplay:10.37,2013-03-07 07:26:00,
2013-03-07 02:32:00,37.0,32.3,29.88,NNE,18,29.9,29.9,83,0.00,-SN,,0.00,WeatherDisplay:10.37,2013-03-07 07:32:00,
2013-03-07 02:37:00,37.1,32.1,29.88,North,5,31.1,31.1,82,0.00,-SN,,0.00,WeatherDisplay:10.37,2013-03-07 07:37:00,
2013-03-07 02:42:00,37.1,32.1,29.88,NNE,21,35.0,35.0,82,0.00,-SN,,0.00,WeatherDisplay:10.37,2013-03-07 07:42:00,
2013-03-07 02:47:00,37.2,32.2,29.88,North,5,23.0,23.0,82,0.00,-SN,,0.00,WeatherDisplay:10.37,2013-03-07 07:47:00,
2013-03-07 02:52:00,37.3,32.0,29.89,NNE,14,32.2,32.2,81,0.00,-SN,,0.00,WeatherDisplay:10.37,2013-03-07 07:52:00,
2013-03-07 02:57:00,37.3,32.0,29.89,North,11,26.5,26.5,81,0.00,-SN,,0.00,WeatherDisplay:10.37,2013-03-07 07:57:00,
2013-03-07 03:02:00,37.2,31.9,29.89,NNE,24,27.0,27.0,81,0.00,-SN,,0.00,WeatherDisplay:10.37,2013-03-07 08:02:00,
2013-03-07 03:08:00,37.2,31.9,29.89,NNE,24,32.0,32.0,81,0.00,-SN,,0.00,WeatherDisplay:10.37,2013-03-07 08:08:00,
2013-03-07 03:13:00,37.2,31.9,29.89,North,5,29.9,29.9,81,0.00,-SN,,0.00,WeatherDisplay:10.37,2013-03-07 08:13:00,
2013-03-07 03:18:00,37.3,32.0,29.89,NE,34,30.0,30.0,81,0.00,-SN,,0.00,WeatherDisplay:10.37,2013-03-07 08:18:00,
2013-03-07 03:24:00,37.2,31.9,29.89,North,5,28.8,28.8,81,0.00,-SN,,0.00,WeatherDisplay:10.37,2013-03-07 08:24:00,
2013-03-07 03:29:00,37.1,31.8,29.89,NNE,30,31.1,31.1,81,0.00,-SN,,0.00,WeatherDisplay:10.37,2013-03-07 08:29:00,
2013-03-07 03:34:00,36.9,31.9,29.89,NNE,13,29.9,29.9,82,0.00,-SN,,0.00,WeatherDisplay:10.37,2013-03-07 08:34:00,
2013-03-07 03:39:00,36.9,31.9,29.89,North,9,24.2,24.2,82,0.00,-SN,,0.00,WeatherDisplay:10.37,2013-03-07 08:39:00,
2013-03-07 03:44:00,36.9,31.6,29.89,NNE,26,24.2,24.2,81,0.00,-SN,,0.00,WeatherDisplay:10.37,2013-03-07 08:44:00,
2013-03-07 03:49:00,36.9,31.9,29.89,NNE,13,26.5,26.5,82,0.00,-SN,,0.00,WeatherDisplay:10.37,2013-03-07 08:49:00,
2013-03-07 03:54:00,36.7,32.0,29.89,North,5,38.0,38.0,83,0.00,-SN,,0.00,WeatherDisplay:10.37,2013-03-07 08:54:00,
2013-03-07 03:59:00,36.4,32.0,29.89,North,5,27.0,27.0,84,0.00,-SN,,0.00,WeatherDisplay:10.37,2013-03-07 08:59:00,
2013-03-07 04:04:00,36.1,31.7,29.89,NNE,14,27.6,27.6,84,0.00,OVC,,0.00,WeatherDisplay:10.37,2013-03-07 09:04:00,
2013-03-07 04:10:00,35.9,31.8,29.89,North,355,33.4,33.4,85,0.00,OVC,,0.00,WeatherDisplay:10.37,2013-03-07 09:10:00,
2013-03-07 04:15:00,35.7,31.9,29.90,North,5,28.8,28.8,86,0.00,OVC,,0.00,WeatherDisplay:10.37,2013-03-07 09:15:00,
2013-03-07 04:21:00,35.6,31.8,29.89,North,9,22.0,22.0,86,0.00,OVC,,0.00,WeatherDisplay:10.37,2013-03-07 09:21:00,
2013-03-07 04:26:00,35.5,32.0,29.89,North,5,27.6,27.6,87,0.00,OVC,,0.00,WeatherDisplay:10.37,2013-03-07 09:26:00,
2013-03-07 04:31:00,35.4,31.9,29.89,North,5,21.9,21.9,87,0.00,OVC,,0.00,WeatherDisplay:10.37,2013-03-07 09:31:00,
2013-03-07 04:36:00,35.4,31.9,29.90,North,355,25.0,25.0,87,0.00,OVC,,0.00,WeatherDisplay:10.37,2013-03-07 09:36:00,
2013-03-07 04:41:00,35.3,31.8,29.90,North,355,27.6,27.6,87,0.00,OVC,,0.00,WeatherDisplay:10.37,2013-03-07 09:41:00,
2013-03-07 04:46:00,35.3,31.8,29.90,North,349,28.8,28.8,87,0.00,OVC,,0.00,WeatherDisplay:10.37,2013-03-07 09:46:00,
2013-03-07 04:52:00,35.3,31.8,29.90,NNW,348,19.6,19.6,87,0.00,OVC,,0.00,WeatherDisplay:10.37,2013-03-07 09:52:00,
2013-03-07 04:57:00,35.3,31.8,29.90,NNW,338,26.5,26.5,87,0.00,OVC,,0.00,WeatherDisplay:10.37,2013-03-07 09:57:00,
2013-03-07 05:03:00,35.4,31.6,29.90,NNE,12,29.9,29.9,86,0.00,-SN,,0.00,WeatherDisplay:10.37,2013-03-07 10:03:00,
2013-03-07 05:08:00,35.4,31.6,29.91,North,360,27.6,27.6,86,0.00,-SN,,0.00,WeatherDisplay:10.37,2013-03-07 10:08:00,
2013-03-07 05:13:00,35.4,31.6,29.91,North,9,25.3,25.3,86,0.00,-SN,,0.00,WeatherDisplay:10.37,2013-03-07 10:13:00,
2013-03-07 05:18:00,35.3,31.5,29.91,NNE,23,26.0,26.0,86,0.00,-SN,,0.00,WeatherDisplay:10.37,2013-03-07 10:18:00,
2013-03-07 05:23:00,35.2,31.4,29.91,North,5,20.7,20.7,86,0.00,-SN,,0.00,WeatherDisplay:10.37,2013-03-07 10:23:00,
2013-03-07 05:29:00,35.2,31.4,29.91,North,360,29.9,29.9,86,0.00,-SN,,0.00,WeatherDisplay:10.37,2013-03-07 10:29:00,
2013-03-07 05:34:00,35.2,31.4,29.92,North,5,29.0,29.0,86,0.00,-SN,,0.00,WeatherDisplay:10.37,2013-03-07 10:34:00,
2013-03-07 05:39:00,35.4,31.3,29.92,NNE,21,32.2,32.2,85,0.00,-SN,,0.00,WeatherDisplay:10.37,2013-03-07 10:39:00,
2013-03-07 05:44:00,35.6,31.2,29.92,North,5,27.6,27.6,84,0.00,-SN,,0.00,WeatherDisplay:10.37,2013-03-07 10:44:00,
2013-03-07 05:49:00,35.7,31.0,29.92,North,5,24.0,24.0,83,0.00,-SN,,0.00,WeatherDisplay:10.37,2013-03-07 10:49:00,
2013-03-07 05:54:00,35.9,31.2,29.92,North,5,27.0,27.0,83,0.00,-SN,,0.00,WeatherDisplay:10.37,2013-03-07 10:54:00,
2013-03-07 05:59:00,36.1,31.1,29.92,North,355,28.8,28.8,82,0.00,-SN,,0.00,WeatherDisplay:10.37,2013-03-07 10:59:00,
2013-03-07 06:04:00,36.2,30.9,29.92,North,355,27.0,27.0,81,0.00,-SN,,0.00,WeatherDisplay:10.37,2013-03-07 11:04:00,
2013-03-07 06:10:00,36.3,30.7,29.92,NNE,29,32.0,32.0,80,0.00,-SN,,0.00,WeatherDisplay:10.37,2013-03-07 11:10:00,
2013-03-07 06:15:00,36.3,30.4,29.92,North,360,26.5,26.5,79,0.00,-SN,,0.00,WeatherDisplay:10.37,2013-03-07 11:15:00,
2013-03-07 06:20:00,36.3,30.4,29.92,North,5,21.9,21.9,79,0.00,-SN,,0.00,WeatherDisplay:10.37,2013-03-07 11:20:00,
2013-03-07 06:25:00,36.4,30.5,29.93,North,350,29.9,29.9,79,0.00,-SN,,0.00,WeatherDisplay:10.37,2013-03-07 11:25:00,
2013-03-07 06:30:00,36.4,30.5,29.93,North,3,21.0,33.0,79,0.00,-SN,,0.00,WeatherDisplay:10.37,2013-03-07 11:30:00,
2013-03-07 06:35:00,36.4,30.5,29.92,North,11,23.0,23.0,79,0.00,-SN,,0.00,WeatherDisplay:10.37,2013-03-07 11:35:00,
2013-03-07 06:40:00,36.3,30.1,29.93,NNE,13,25.3,25.3,78,0.00,-SN,,0.00,WeatherDisplay:10.37,2013-03-07 11:40:00,
2013-03-07 06:45:00,36.1,30.2,29.93,North,5,33.4,33.4,79,0.00,-SN,,0.00,WeatherDisplay:10.37,2013-03-07 11:45:00,
2013-03-07 06:50:00,35.9,30.3,29.93,North,11,28.8,28.8,80,0.00,-SN,,0.00,WeatherDisplay:10.37,2013-03-07 11:50:00,
2013-03-07 06:55:00,35.6,30.3,29.93,NNW,336,27.6,27.6,81,0.00,-SN,,0.00,WeatherDisplay:10.37,2013-03-07 11:55:00,
2013-03-07 07:00:00,35.5,30.5,29.93,NNW,329,26.5,26.5,82,0.00,OVC,,0.00,WeatherDisplay:10.37,2013-03-07 12:00:00,
2013-03-07 07:06:00,35.4,30.8,29.93,NNW,342,30.0,30.0,83,0.00,OVC,,0.00,WeatherDisplay:10.37,2013-03-07 12:06:00,
2013-03-07 07:11:00,35.3,30.7,29.93,North,360,23.0,23.0,83,0.00,OVC,,0.00,WeatherDisplay:10.37,2013-03-07 12:11:00,
2013-03-07 07:16:00,35.2,30.6,29.93,North,360,26.5,26.5,83,0.00,OVC,,0.00,WeatherDisplay:10.37,2013-03-07 12:16:00,
2013-03-07 07:21:00,35.2,30.6,29.93,NNW,336,26.5,26.5,83,0.00,OVC,,0.00,WeatherDisplay:10.37,2013-03-07 12:21:00,
2013-03-07 07:27:00,35.2,30.6,29.93,North,9,26.5,26.5,83,0.00,OVC,,0.00,WeatherDisplay:10.37,2013-03-07 12:27:00,
2013-03-07 07:32:00,35.2,30.6,29.94,North,350,27.6,27.6,83,0.00,OVC,,0.00,WeatherDisplay:10.37,2013-03-07 12:32:00,
2013-03-07 07:37:00,35.2,30.6,29.94,North,351,28.8,28.8,83,0.00,OVC,,0.00,WeatherDisplay:10.37,2013-03-07 12:37:00,
2013-03-07 07:42:00,35.2,30.6,29.93,NNW,329,25.0,25.0,83,0.00,OVC,,0.00,WeatherDisplay:10.37,2013-03-07 12:42:00,
2013-03-07 07:47:00,35.1,30.5,29.93,North,360,29.9,29.9,83,0.00,OVC,,0.00,WeatherDisplay:10.37,2013-03-07 12:47:00,
2013-03-07 07:53:00,35.1,30.5,29.94,NNW,346,25.3,25.3,83,0.00,OVC,,0.00,WeatherDisplay:10.37,2013-03-07 12:53:00,
2013-03-07 07:58:00,35.1,30.5,29.94,North,360,27.6,27.6,83,0.00,OVC,,0.00,WeatherDisplay:10.37,2013-03-07 12:58:00,
2013-03-07 08:03:00,35.2,30.6,29.94,NNW,340,25.3,25.3,83,0.00,-SN,,0.00,WeatherDisplay:10.37,2013-03-07 13:03:00,
2013-03-07 08:08:00,35.2,30.3,29.94,NNW,342,27.6,27.6,82,0.00,-SN,,0.00,WeatherDisplay:10.37,2013-03-07 13:08:00,
2013-03-07 08:14:00,35.4,30.5,29.94,NNW,343,24.2,24.2,82,0.00,-SN,,0.00,WeatherDisplay:10.37,2013-03-07 13:14:00,
2013-03-07 08:19:00,35.5,30.2,29.94,North,355,26.5,26.5,81,0.00,-SN,,0.00,WeatherDisplay:10.37,2013-03-07 13:19:00,
2013-03-07 08:24:00,35.5,30.2,29.93,NNW,345,26.5,26.5,81,0.00,-SN,,0.00,WeatherDisplay:10.37,2013-03-07 13:24:00,
2013-03-07 08:29:00,35.6,30.3,29.93,North,11,25.3,25.3,81,0.00,-SN,,0.00,WeatherDisplay:10.37,2013-03-07 13:29:00,
2013-03-07 08:34:00,35.7,30.4,29.93,NNW,345,24.2,24.2,81,0.00,-SN,,0.00,WeatherDisplay:10.37,2013-03-07 13:34:00,
2013-03-07 08:40:00,35.7,30.1,29.93,NNW,344,26.5,26.5,80,0.00,-SN,,0.00,WeatherDisplay:10.37,2013-03-07 13:40:00,
2013-03-07 08:45:00,35.9,30.3,29.93,North,357,21.0,33.0,80,0.00,-SN,,0.00,WeatherDisplay:10.37,2013-03-07 13:45:00,
2013-03-07 08:50:00,35.9,30.0,29.93,North,5,28.0,28.0,79,0.00,-SN,,0.00,WeatherDisplay:10.37,2013-03-07 13:50:00,
2013-03-07 08:55:00,36.0,30.1,29.93,North,355,26.5,26.5,79,0.00,-SN,,0.00,WeatherDisplay:10.37,2013-03-07 13:55:00,
2013-03-07 09:00:00,36.1,30.2,29.93,North,360,25.3,25.3,79,0.00,-SN,,0.00,WeatherDisplay:10.37,2013-03-07 14:00:00,
2013-03-07 09:05:00,36.2,30.0,29.93,North,351,26.5,26.5,78,0.00,-SN,,0.00,WeatherDisplay:10.37,2013-03-07 14:05:00,
2013-03-07 09:10:00,36.3,30.4,29.93,North,5,26.5,26.5,79,0.00,-SN,,0.00,WeatherDisplay:10.37,2013-03-07 14:10:00,
2013-03-07 09:15:00,36.4,30.2,29.93,NNW,337,24.2,24.2,78,0.00,-SN,,0.00,WeatherDisplay:10.37,2013-03-07 14:15:00,
2013-03-07 09:20:00,36.6,30.4,29.93,North,360,26.5,26.5,78,0.00,-SN,,0.00,WeatherDisplay:10.37,2013-03-07 14:20:00,
2013-03-07 09:26:00,36.8,30.6,29.93,North,5,25.3,25.3,78,0.00,-SN,,0.00,WeatherDisplay:10.37,2013-03-07 14:26:00,
2013-03-07 09:31:00,36.9,30.0,29.93,NNE,15,27.6,27.6,76,0.00,-SN,,0.00,WeatherDisplay:10.37,2013-03-07 14:31:00,
2013-03-07 09:36:00,37.1,30.2,29.93,North,9,31.1,31.1,76,0.00,-SN,,0.00,WeatherDisplay:10.37,2013-03-07 14:36:00,
2013-03-07 09:41:00,37.2,30.3,29.93,North,10,23.0,23.0,76,0.00,-SN,,0.00,WeatherDisplay:10.37,2013-03-07 14:41:00,
2013-03-07 09:47:00,37.4,30.2,29.93,North,355,26.5,26.5,75,0.00,-SN,,0.00,WeatherDisplay:10.37,2013-03-07 14:47:00,
2013-03-07 09:52:00,37.5,30.3,29.93,North,349,27.6,27.6,75,0.00,-SN,,0.00,WeatherDisplay:10.37,2013-03-07 14:52:00,
2013-03-07 09:57:00,37.7,30.2,29.93,North,351,29.9,29.9,74,0.00,-SN,,0.00,WeatherDisplay:10.37,2013-03-07 14:57:00,
2013-03-07 10:02:00,37.9,30.4,29.93,NNE,24,34.5,34.5,74,0.00,OVC,,0.00,WeatherDisplay:10.37,2013-03-07 15:02:00,
2013-03-07 10:08:00,38.0,30.1,29.93,NNE,13,33.4,33.4,73,0.00,OVC,,0.00,WeatherDisplay:10.37,2013-03-07 15:08:00,
2013-03-07 10:13:00,38.2,30.3,29.93,North,355,28.8,28.8,73,0.00,OVC,,0.00,WeatherDisplay:10.37,2013-03-07 15:13:00,
2013-03-07 10:18:00,38.3,30.4,29.93,NNE,32,29.0,29.0,73,0.00,OVC,,0.00,WeatherDisplay:10.37,2013-03-07 15:18:00,
2013-03-07 10:23:00,38.5,30.6,29.93,North,9,23.0,23.0,73,0.00,OVC,,0.00,WeatherDisplay:10.37,2013-03-07 15:23:00,
2013-03-07 10:29:00,38.7,30.8,29.93,NNE,30,31.0,31.0,73,0.00,OVC,,0.00,WeatherDisplay:10.37,2013-03-07 15:29:00,
2013-03-07 10:34:00,38.8,30.5,29.93,NNE,22,31.1,31.1,72,0.00,OVC,,0.00,WeatherDisplay:10.37,2013-03-07 15:34:00,
2013-03-07 10:39:00,38.9,31.0,29.93,North,355,31.0,31.0,73,0.00,OVC,,0.00,WeatherDisplay:10.37,2013-03-07 15:39:00,
2013-03-07 10:44:00,39.0,31.1,29.93,NNE,19,28.8,28.8,73,0.00,OVC,,0.00,WeatherDisplay:10.37,2013-03-07 15:44:00,
2013-03-07 10:49:00,39.1,30.5,29.93,NNE,21,40.3,40.3,71,0.00,OVC,,0.00,WeatherDisplay:10.37,2013-03-07 15:49:00,
2013-03-07 10:54:00,39.2,30.9,29.93,North,350,28.8,28.8,72,0.00,OVC,,0.00,WeatherDisplay:10.37,2013-03-07 15:54:00,
2013-03-07 10:59:00,39.3,31.0,29.93,NNE,21,29.0,29.0,72,0.00,OVC,,0.00,WeatherDisplay:10.37,2013-03-07 15:59:00,
2013-03-07 11:05:00,39.2,30.6,29.93,North,9,31.1,31.1,71,0.00,OVC,,0.00,WeatherDisplay:10.37,2013-03-07 16:05:00,
2013-03-07 11:10:00,39.3,31.0,29.93,North,350,33.4,33.4,72,0.00,OVC,,0.00,WeatherDisplay:10.37,2013-03-07 16:10:00,
2013-03-07 11:15:00,39.3,31.0,29.94,North,351,29.9,29.9,72,0.00,OVC,,0.00,WeatherDisplay:10.37,2013-03-07 16:15:00,
2013-03-07 11:20:00,39.3,31.0,29.94,NNE,13,28.8,28.8,72,0.00,OVC,,0.00,WeatherDisplay:10.37,2013-03-07 16:20:00,
2013-03-07 11:26:00,39.4,31.1,29.94,North,9,23.0,23.0,72,0.00,OVC,,0.00,WeatherDisplay:10.37,2013-03-07 16:26:00,
2013-03-07 11:31:00,39.5,30.9,29.94,North,9,29.9,29.9,71,0.00,OVC,,0.00,WeatherDisplay:10.37,2013-03-07 16:31:00,
2013-03-07 11:36:00,39.5,30.9,29.94,NNE,12,32.2,32.2,71,0.00,OVC,,0.00,WeatherDisplay:10.37,2013-03-07 16:36:00,
2013-03-07 11:42:00,39.5,30.9,29.94,NNE,30,29.9,29.9,71,0.00,OVC,,0.00,WeatherDisplay:10.37,2013-03-07 16:42:00,
2013-03-07 11:47:00,39.7,31.4,29.94,NNE,21,29.9,29.9,72,0.00,OVC,,0.00,WeatherDisplay:10.37,2013-03-07 16:47:00,
2013-03-07 11:52:00,39.7,30.7,29.94,North,355,32.2,32.2,70,0.00,OVC,,0.00,WeatherDisplay:10.37,2013-03-07 16:52:00,
2013-03-07 11:57:00,39.7,31.4,29.94,North,355,29.9,29.9,72,0.00,OVC,,0.00,WeatherDisplay:10.37,2013-03-07 16:57:00,
2013-03-07 12:02:00,39.5,30.9,29.94,NNW,337,36.8,36.8,71,0.00,OVC,,0.00,WeatherDisplay:10.37,2013-03-07 17:02:00,
2013-03-07 12:08:00,39.5,30.9,29.94,NNE,20,39.1,39.1,71,0.00,OVC,,0.00,WeatherDisplay:10.37,2013-03-07 17:08:00,
2013-03-07 12:13:00,39.5,31.2,29.94,North,5,26.5,26.5,72,0.00,OVC,,0.00,WeatherDisplay:10.37,2013-03-07 17:13:00,
2013-03-07 12:18:00,39.4,31.1,29.94,NNE,22,25.3,25.3,72,0.00,OVC,,0.00,WeatherDisplay:10.37,2013-03-07 17:18:00,
2013-03-07 12:23:00,39.3,31.0,29.94,North,360,31.1,31.1,72,0.00,OVC,,0.00,WeatherDisplay:10.37,2013-03-07 17:23:00,
2013-03-07 12:29:00,39.1,30.8,29.94,North,355,25.3,25.3,72,0.00,OVC,,0.00,WeatherDisplay:10.37,2013-03-07 17:29:00,
2013-03-07 12:34:00,39.2,30.9,29.94,North,355,21.9,21.9,72,0.00,OVC,,0.00,WeatherDisplay:10.37,2013-03-07 17:34:00,
2013-03-07 12:39:00,39.1,30.8,29.94,NNE,12,27.6,27.6,72,0.00,OVC,,0.00,WeatherDisplay:10.37,2013-03-07 17:39:00,
2013-03-07 12:44:00,39.0,30.7,29.94,NNE,17,31.1,31.1,72,0.00,OVC,,0.00,WeatherDisplay:10.37,2013-03-07 17:44:00,
2013-03-07 12:49:00,39.0,31.1,29.94,North,355,28.8,28.8,73,0.00,OVC,,0.00,WeatherDisplay:10.37,2013-03-07 17:49:00,
2013-03-07 12:54:00,38.9,30.6,29.94,North,355,38.0,38.0,72,0.00,OVC,,0.00,WeatherDisplay:10.37,2013-03-07 17:54:00,
2013-03-07 12:59:00,39.0,31.1,29.94,NNE,12,26.5,26.5,73,0.00,OVC,,0.00,WeatherDisplay:10.37,2013-03-07 17:59:00,
2013-03-07 13:04:00,39.0,31.4,29.94,NNW,337,26.5,26.5,74,0.00,OVC,,0.00,WeatherDisplay:10.37,2013-03-07 18:04:00,
2013-03-07 13:10:00,39.0,30.7,29.94,NNE,28,29.9,29.9,72,0.00,OVC,,0.00,WeatherDisplay:10.37,2013-03-07 18:10:00,
2013-03-07 13:15:00,39.0,31.1,29.94,NNE,13,21.0,35.0,73,0.00,OVC,,0.00,WeatherDisplay:10.37,2013-03-07 18:15:00,
2013-03-07 13:20:00,39.0,30.7,29.94,North,11,29.9,29.9,72,0.00,OVC,,0.00,WeatherDisplay:10.37,2013-03-07 18:20:00,
2013-03-07 13:25:00,39.0,30.7,29.94,NNE,24,33.4,33.4,72,0.00,OVC,,0.00,WeatherDisplay:10.37,2013-03-07 18:25:00,
2013-03-07 13:30:00,39.0,30.7,29.94,NNW,347,26.5,26.5,72,0.00,OVC,,0.00,WeatherDisplay:10.37,2013-03-07 18:30:00,
2013-03-07 13:36:00,39.0,30.7,29.93,North,355,28.8,28.8,72,0.00,OVC,,0.00,WeatherDisplay:10.37,2013-03-07 18:36:00,
2013-03-07 13:41:00,39.1,30.8,29.94,North,355,29.9,29.9,72,0.00,OVC,,0.00,WeatherDisplay:10.37,2013-03-07 18:41:00,
2013-03-07 13:46:00,39.1,30.8,29.93,NNW,339,36.0,36.0,72,0.00,OVC,,0.00,WeatherDisplay:10.37,2013-03-07 18:46:00,
2013-03-07 13:52:00,39.1,30.8,29.94,North,9,29.9,29.9,72,0.00,OVC,,0.00,WeatherDisplay:10.37,2013-03-07 18:52:00,
2013-03-07 13:57:00,39.1,31.2,29.94,North,9,26.5,26.5,73,0.00,OVC,,0.00,WeatherDisplay:10.37,2013-03-07 18:57:00,
2013-03-07 14:02:00,39.2,30.6,29.93,North,10,30.0,30.0,71,0.00,-SN,,0.00,WeatherDisplay:10.37,2013-03-07 19:02:00,
2013-03-07 14:07:00,39.3,30.7,29.94,North,360,33.4,33.4,71,0.00,-SN,,0.00,WeatherDisplay:10.37,2013-03-07 19:07:00,
2013-03-07 14:13:00,39.5,30.9,29.94,NNW,348,28.8,28.8,71,0.00,-SN,,0.00,WeatherDisplay:10.37,2013-03-07 19:13:00,
2013-03-07 14:18:00,39.6,31.0,29.94,North,355,27.6,27.6,71,0.00,-SN,,0.00,WeatherDisplay:10.37,2013-03-07 19:18:00,
2013-03-07 14:23:00,39.6,30.6,29.94,North,349,27.6,27.6,70,0.00,-SN,,0.00,WeatherDisplay:10.37,2013-03-07 19:23:00,
2013-03-07 14:28:00,39.6,30.6,29.94,NNW,348,28.8,28.8,70,0.00,-SN,,0.00,WeatherDisplay:10.37,2013-03-07 19:28:00,
2013-03-07 14:33:00,39.5,30.9,29.95,North,9,27.6,27.6,71,0.00,-SN,,0.00,WeatherDisplay:10.37,2013-03-07 19:33:00,
2013-03-07 14:38:00,39.4,30.8,29.94,North,350,31.1,31.1,71,0.00,-SN,,0.00,WeatherDisplay:10.37,2013-03-07 19:38:00,
2013-03-07 14:44:00,39.4,30.8,29.95,North,5,26.5,26.5,71,0.00,-SN,,0.00,WeatherDisplay:10.37,2013-03-07 19:44:00,
2013-03-07 14:49:00,39.4,30.8,29.95,NNE,13,31.1,31.1,71,0.00,-SN,,0.00,WeatherDisplay:10.37,2013-03-07 19:49:00,
2013-03-07 14:54:00,39.4,30.8,29.95,NNE,19,25.3,25.3,71,0.00,-SN,,0.00,WeatherDisplay:10.37,2013-03-07 19:54:00,
2013-03-07 14:59:00,39.4,30.8,29.95,North,5,24.2,24.2,71,0.00,-SN,,0.00,WeatherDisplay:10.37,2013-03-07 19:59:00,
2013-03-07 15:04:00,39.3,30.7,29.95,NNE,20,29.9,29.9,71,0.00,-SN,,0.00,WeatherDisplay:10.37,2013-03-07 20:04:00,
2013-03-07 15:10:00,39.3,31.0,29.95,NNE,13,29.9,29.9,72,0.00,-SN,,0.00,WeatherDisplay:10.37,2013-03-07 20:10:00,
2013-03-07 15:15:00,39.3,31.0,29.95,North,2,25.0,33.0,72,0.00,-SN,,0.00,WeatherDisplay:10.37,2013-03-07 20:15:00,
2013-03-07 15:20:00,39.1,30.8,29.95,NNW,343,26.5,26.5,72,0.00,-SN,,0.00,WeatherDisplay:10.37,2013-03-07 20:20:00,
2013-03-07 15:25:00,39.1,31.2,29.95,North,355,26.5,26.5,73,0.00,-SN,,0.00,WeatherDisplay:10.37,2013-03-07 20:25:00,
2013-03-07 15:30:00,39.0,31.1,29.95,North,355,25.3,25.3,73,0.00,-SN,,0.00,WeatherDisplay:10.37,2013-03-07 20:30:00,
2013-03-07 15:35:00,38.9,31.0,29.95,North,5,28.8,28.8,73,0.00,-SN,,0.00,WeatherDisplay:10.37,2013-03-07 20:35:00,
2013-03-07 15:40:00,38.9,31.3,29.95,North,355,20.7,20.7,74,0.00,-SN,,0.00,WeatherDisplay:10.37,2013-03-07 20:40:00,
2013-03-07 15:46:00,38.9,31.3,29.96,North,360,19.6,19.6,74,0.00,-SN,,0.00,WeatherDisplay:10.37,2013-03-07 20:46:00,
2013-03-07 15:51:00,38.9,31.0,29.96,NNW,344,26.5,26.5,73,0.00,-SN,,0.00,WeatherDisplay:10.37,2013-03-07 20:51:00,
2013-03-07 15:56:00,39.0,30.7,29.96,North,360,28.8,28.8,72,0.00,-SN,,0.00,WeatherDisplay:10.37,2013-03-07 20:56:00,
2013-03-07 16:01:00,39.0,31.1,29.96,North,360,24.0,24.0,73,0.00,OVC,,0.00,WeatherDisplay:10.37,2013-03-07 21:01:00,
2013-03-07 16:07:00,39.0,31.1,29.96,North,355,23.0,23.0,73,0.00,OVC,,0.00,WeatherDisplay:10.37,2013-03-07 21:07:00,
2013-03-07 16:12:00,38.9,31.3,29.96,North,11,21.9,21.9,74,0.00,OVC,,0.00,WeatherDisplay:10.37,2013-03-07 21:12:00,
2013-03-07 16:17:00,38.8,31.2,29.96,NNW,348,21.9,21.9,74,0.00,OVC,,0.00,WeatherDisplay:10.37,2013-03-07 21:17:00,
2013-03-07 16:22:00,38.7,31.8,29.96,North,360,23.0,23.0,76,0.00,OVC,,0.00,WeatherDisplay:10.37,2013-03-07 21:22:00,
2013-03-07 16:27:00,38.5,31.6,29.96,NNW,338,19.6,19.6,76,0.00,OVC,,0.00,WeatherDisplay:10.37,2013-03-07 21:27:00,
2013-03-07 16:32:00,38.3,31.7,29.96,NNW,339,20.7,20.7,77,0.00,OVC,,0.00,WeatherDisplay:10.37,2013-03-07 21:32:00,
2013-03-07 16:37:00,38.2,31.9,29.97,North,355,16.1,16.1,78,0.00,OVC,,0.00,WeatherDisplay:10.37,2013-03-07 21:37:00,
2013-03-07 16:43:00,37.9,32.0,29.97,NNW,336,19.6,19.6,79,0.00,OVC,,0.00,WeatherDisplay:10.37,2013-03-07 21:43:00,
2013-03-07 16:48:00,37.7,32.1,29.97,NNW,346,21.9,21.9,80,0.00,OVC,,0.00,WeatherDisplay:10.37,2013-03-07 21:48:00,
2013-03-07 16:53:00,37.4,32.1,29.97,NNW,338,16.1,16.1,81,0.00,OVC,,0.00,WeatherDisplay:10.37,2013-03-07 21:53:00,
2013-03-07 16:58:00,37.1,32.4,29.97,NW,309,15.0,15.0,83,0.00,OVC,,0.00,WeatherDisplay:10.37,2013-03-07 21:58:00,
2013-03-07 17:03:00,36.9,32.2,29.98,North,360,19.6,19.6,83,0.00,OVC,,0.00,WeatherDisplay:10.37,2013-03-07 22:03:00,
2013-03-07 17:08:00,36.8,32.7,29.98,North,355,17.3,17.3,85,0.00,OVC,,0.00,WeatherDisplay:10.37,2013-03-07 22:08:00,
2013-03-07 17:13:00,36.6,32.5,29.98,NNW,327,15.0,15.0,85,0.00,OVC,,0.00,WeatherDisplay:10.37,2013-03-07 22:13:00,
2013-03-07 17:19:00,36.4,32.6,29.98,NNW,335,16.1,16.1,86,0.00,OVC,,0.00,WeatherDisplay:10.37,2013-03-07 22:19:00,
2013-03-07 17:24:00,36.2,32.7,29.98,NNW,331,17.3,17.3,87,0.00,OVC,,0.00,WeatherDisplay:10.37,2013-03-07 22:24:00,
2013-03-07 17:29:00,36.1,32.6,29.98,NW,317,16.1,16.1,87,0.00,OVC,,0.00,WeatherDisplay:10.37,2013-03-07 22:29:00,
2013-03-07 17:34:00,35.9,32.4,29.98,NW,318,19.6,19.6,87,0.00,OVC,,0.00,WeatherDisplay:10.37,2013-03-07 22:34:00,
2013-03-07 17:39:00,35.8,32.6,29.98,NNW,331,18.4,18.4,88,0.00,OVC,,0.00,WeatherDisplay:10.37,2013-03-07 22:39:00,
2013-03-07 17:44:00,35.7,32.5,29.98,North,355,18.4,18.4,88,0.00,OVC,,0.00,WeatherDisplay:10.37,2013-03-07 22:44:00,
2013-03-07 17:49:00,35.6,32.7,29.98,NW,320,17.3,17.3,89,0.00,OVC,,0.00,WeatherDisplay:10.37,2013-03-07 22:49:00,
2013-03-07 17:55:00,35.5,32.6,29.99,NW,319,11.5,11.5,89,0.00,OVC,,0.00,WeatherDisplay:10.37,2013-03-07 22:55:00,
2013-03-07 18:00:00,35.3,32.4,29.99,NNW,340,15.0,15.0,89,0.00,OVC,,0.00,WeatherDisplay:10.37,2013-03-07 23:00:00,
2013-03-07 18:05:00,35.2,32.6,29.99,NNW,335,16.1,16.1,90,0.00,OVC,,0.00,WeatherDisplay:10.37,2013-03-07 23:05:00,
2013-03-07 18:11:00,35.1,32.5,29.99,NNW,346,11.5,11.5,90,0.00,OVC,,0.00,WeatherDisplay:10.37,2013-03-07 23:11:00,
2013-03-07 18:16:00,35.1,32.7,29.99,NNW,346,18.4,18.4,91,0.00,OVC,,0.00,WeatherDisplay:10.37,2013-03-07 23:16:00,
2013-03-07 18:21:00,35.0,32.6,29.99,WNW,300,17.3,17.3,91,0.00,OVC,,0.00,WeatherDisplay:10.37,2013-03-07 23:21:00,
2013-03-07 18:26:00,34.9,32.5,29.99,NW,324,16.0,16.0,91,0.00,OVC,,0.00,WeatherDisplay:10.37,2013-03-07 23:26:00,
2013-03-07 18:31:00,34.9,32.5,29.99,NNW,329,16.0,16.0,91,0.00,OVC,,0.00,WeatherDisplay:10.37,2013-03-07 23:31:00,
2013-03-07 18:36:00,34.9,32.5,29.99,NNW,340,16.1,16.1,91,0.00,OVC,,0.00,WeatherDisplay:10.37,2013-03-07 23:36:00,
2013-03-07 18:42:00,34.8,32.4,29.99,NW,325,17.3,17.3,91,0.00,OVC,,0.00,WeatherDisplay:10.37,2013-03-07 23:42:00,
2013-03-07 18:47:00,34.8,32.4,29.99,NW,325,19.6,19.6,91,0.00,OVC,,0.00,WeatherDisplay:10.37,2013-03-07 23:47:00,
2013-03-07 18:52:00,34.8,32.4,29.99,NNW,333,12.7,12.7,91,0.00,OVC,,0.00,WeatherDisplay:10.37,2013-03-07 23:52:00,
2013-03-07 18:57:00,34.7,32.6,29.99,NW,320,17.3,17.3,92,0.00,OVC,,0.00,WeatherDisplay:10.37,2013-03-07 23:57:00,
2013-03-07 19:02:00,34.7,32.6,29.99,NW,315,12.0,12.0,92,0.00,-SN,,0.00,WeatherDisplay:10.37,2013-03-08 00:02:00,
2013-03-07 19:08:00,34.7,32.6,29.99,NW,311,15.0,15.0,92,0.00,-SN,,0.00,WeatherDisplay:10.37,2013-03-08 00:08:00,
2013-03-07 19:13:00,34.6,32.5,30.00,NNW,346,17.3,17.3,92,0.00,-SN,,0.00,WeatherDisplay:10.37,2013-03-08 00:13:00,
2013-03-07 19:18:00,34.6,32.5,30.00,NNW,346,16.1,16.1,92,0.00,-SN,,0.00,WeatherDisplay:10.37,2013-03-08 00:18:00,
2013-03-07 19:23:00,34.6,32.5,29.99,NW,313,19.6,19.6,92,0.00,-SN,,0.00,WeatherDisplay:10.37,2013-03-08 00:23:00,
2013-03-07 19:28:00,34.5,32.4,29.99,North,355,18.4,18.4,92,0.01,-SN,,0.01,WeatherDisplay:10.37,2013-03-08 00:28:00,
2013-03-07 19:34:00,34.5,32.4,29.99,NNW,329,18.4,18.4,92,0.01,-SN,,0.01,WeatherDisplay:10.37,2013-03-08 00:34:00,
2013-03-07 19:39:00,34.5,32.4,29.99,NW,323,15.0,15.0,92,0.01,-SN,,0.01,WeatherDisplay:10.37,2013-03-08 00:39:00,
2013-03-07 19:44:00,34.5,32.4,29.99,NNW,345,20.7,20.7,92,0.01,-SN,,0.01,WeatherDisplay:10.37,2013-03-08 00:44:00,
2013-03-07 19:49:00,34.4,32.3,30.00,NNW,327,16.1,16.1,92,0.01,-SN,,0.01,WeatherDisplay:10.37,2013-03-08 00:49:00,
2013-03-07 19:54:00,34.4,32.3,29.99,NNW,344,18.4,18.4,92,0.01,-SN,,0.01,WeatherDisplay:10.37,2013-03-08 00:54:00,
2013-03-07 19:59:00,34.4,32.3,29.99,NNW,348,19.6,19.6,92,0.01,-SN,,0.01,WeatherDisplay:10.37,2013-03-08 00:59:00,
2013-03-07 20:04:00,34.5,32.4,29.99,NNW,331,19.6,19.6,92,0.01,-SN,,0.01,WeatherDisplay:10.37,2013-03-08 01:04:00,
2013-03-07 20:10:00,34.5,32.4,29.99,NNW,347,15.0,15.0,92,0.01,-SN,,0.01,WeatherDisplay:10.37,2013-03-08 01:10:00,
2013-03-07 20:15:00,34.4,32.3,29.99,NW,323,19.6,19.6,92,0.01,-SN,,0.01,WeatherDisplay:10.37,2013-03-08 01:15:00,
2013-03-07 20:21:00,34.4,32.3,29.99,NNW,329,15.0,15.0,92,0.01,-SN,,0.01,WeatherDisplay:10.37,2013-03-08 01:21:00,
2013-03-07 20:26:00,34.3,32.2,29.99,NNW,328,19.6,19.6,92,0.01,-SN,,0.01,WeatherDisplay:10.37,2013-03-08 01:26:00,
2013-03-07 20:31:00,34.2,32.4,29.99,NW,304,14.0,14.0,93,0.00,-SN,,0.01,WeatherDisplay:10.37,2013-03-08 01:31:00,
2013-03-07 20:36:00,34.2,32.4,29.99,NNW,329,15.0,15.0,93,0.00,-SN,,0.01,WeatherDisplay:10.37,2013-03-08 01:36:00,
2013-03-07 20:42:00,34.1,32.3,29.99,NW,313,16.1,16.1,93,0.00,-SN,,0.01,WeatherDisplay:10.37,2013-03-08 01:42:00,
2013-03-07 20:47:00,34.1,32.3,29.99,NW,310,16.1,16.1,93,0.00,-SN,,0.01,WeatherDisplay:10.37,2013-03-08 01:47:00,
2013-03-07 20:52:00,34.1,32.3,29.98,NNW,340,19.6,19.6,93,0.00,-SN,,0.01,WeatherDisplay:10.37,2013-03-08 01:52:00,
2013-03-07 20:57:00,34.1,32.3,29.98,NNW,329,11.5,11.5,93,0.00,-SN,,0.01,WeatherDisplay:10.37,2013-03-08 01:57:00,
2013-03-07 21:03:00,34.1,32.3,29.98,NW,323,12.7,12.7,93,0.00,-SN,,0.01,WeatherDisplay:10.37,2013-03-08 02:03:00,
2013-03-07 21:08:00,34.1,32.6,29.98,NNW,342,17.3,17.3,94,0.00,-SN,,0.01,WeatherDisplay:10.37,2013-03-08 02:08:00,
2013-03-07 21:13:00,34.2,32.7,29.98,NNW,348,12.7,12.7,94,0.00,-SN,,0.01,WeatherDisplay:10.37,2013-03-08 02:13:00,
2013-03-07 21:18:00,34.2,32.7,29.98,NNW,346,16.1,16.1,94,0.00,-SN,,0.01,WeatherDisplay:10.37,2013-03-08 02:18:00,
2013-03-07 21:23:00,34.1,32.6,29.98,NNW,327,13.8,13.8,94,0.00,-SN,,0.01,WeatherDisplay:10.37,2013-03-08 02:23:00,
2013-03-07 21:29:00,34.2,32.7,29.98,NNW,339,13.8,13.8,94,0.00,-SN,,0.01,WeatherDisplay:10.37,2013-03-08 02:29:00,
2013-03-07 21:34:00,34.2,32.7,29.98,North,355,20.7,20.7,94,0.01,-SN,,0.02,WeatherDisplay:10.37,2013-03-08 02:34:00,
2013-03-07 21:39:00,34.2,32.7,29.98,North,349,12.7,12.7,94,0.01,-SN,,0.02,WeatherDisplay:10.37,2013-03-08 02:39:00,
2013-03-07 21:44:00,34.3,32.8,29.98,NNW,338,18.4,18.4,94,0.01,-SN,,0.02,WeatherDisplay:10.37,2013-03-08 02:44:00,
2013-03-07 21:49:00,34.3,32.8,29.98,NNW,342,13.0,13.0,94,0.01,-SN,,0.02,WeatherDisplay:10.37,2013-03-08 02:49:00,
2013-03-07 21:54:00,34.4,32.9,29.98,NNW,333,16.1,16.1,94,0.01,-SN,,0.02,WeatherDisplay:10.37,2013-03-08 02:54:00,
2013-03-07 22:00:00,34.5,33.0,29.97,NNW,344,18.0,18.0,94,0.01,-SN,,0.02,WeatherDisplay:10.37,2013-03-08 03:00:00,
2013-03-07 22:05:00,34.6,33.1,29.97,NW,314,15.0,15.0,94,0.01,-SN,,0.02,WeatherDisplay:10.37,2013-03-08 03:05:00,
2013-03-07 22:10:00,34.6,33.1,29.97,NNW,330,12.7,12.7,94,0.01,-SN,,0.02,WeatherDisplay:10.37,2013-03-08 03:10:00,
2013-03-07 22:15:00,34.6,33.1,29.97,NNW,346,19.6,19.6,94,0.01,-SN,,0.02,WeatherDisplay:10.37,2013-03-08 03:15:00,
2013-03-07 22:20:00,34.6,33.1,29.97,NW,312,18.4,18.4,94,0.01,-SN,,0.02,WeatherDisplay:10.37,2013-03-08 03:20:00,
2013-03-07 22:26:00,34.7,33.2,29.97,NNW,334,19.6,19.6,94,0.01,-SN,,0.02,WeatherDisplay:10.37,2013-03-08 03:26:00,
2013-03-07 22:31:00,34.7,33.2,29.97,NNW,329,16.1,16.1,94,0.01,-SN,,0.02,WeatherDisplay:10.37,2013-03-08 03:31:00,
2013-03-07 22:36:00,34.7,33.2,29.97,NNW,348,24.2,24.2,94,0.00,-SN,,0.02,WeatherDisplay:10.37,2013-03-08 03:36:00,
2013-03-07 22:41:00,34.7,32.9,29.97,NNW,336,13.8,14.4,93,0.00,-SN,,0.02,WeatherDisplay:10.37,2013-03-08 03:41:00,
2013-03-07 22:47:00,34.6,32.8,29.97,NNW,347,19.6,19.6,93,0.00,-SN,,0.02,WeatherDisplay:10.37,2013-03-08 03:47:00,
2013-03-07 22:52:00,34.5,32.7,29.97,North,355,13.8,13.8,93,0.01,-SN,,0.03,WeatherDisplay:10.37,2013-03-08 03:52:00,
2013-03-07 22:57:00,34.4,32.6,29.97,NNW,348,18.4,18.4,93,0.01,-SN,,0.03,WeatherDisplay:10.37,2013-03-08 03:57:00,
2013-03-07 23:02:00,34.3,32.5,29.97,NNW,327,15.0,15.0,93,0.01,-SN,,0.03,WeatherDisplay:10.37,2013-03-08 04:02:00,
2013-03-07 23:07:00,34.3,32.5,29.97,NNW,330,11.5,11.5,93,0.01,-SN,,0.03,WeatherDisplay:10.37,2013-03-08 04:07:00,
2013-03-07 23:12:00,34.3,32.5,29.97,NW,319,13.0,13.0,93,0.01,-SN,,0.03,WeatherDisplay:10.37,2013-03-08 04:12:00,
2013-03-07 23:17:00,34.2,32.4,29.97,North,360,18.4,18.4,93,0.01,-SN,,0.03,WeatherDisplay:10.37,2013-03-08 04:17:00,
2013-03-07 23:22:00,34.1,32.3,29.97,NNW,340,15.0,15.0,93,0.01,-SN,,0.03,WeatherDisplay:10.37,2013-03-08 04:22:00,
2013-03-07 23:28:00,34.0,32.5,29.97,NNW,335,17.3,17.3,94,0.01,-SN,,0.03,WeatherDisplay:10.37,2013-03-08 04:28:00,
2013-03-07 23:33:00,34.0,32.5,29.97,NNW,342,12.7,12.7,94,0.01,-SN,,0.03,WeatherDisplay:10.37,2013-03-08 04:33:00,
2013-03-07 23:38:00,34.0,32.5,29.97,NNW,346,11.5,11.5,94,0.01,-SN,,0.03,WeatherDisplay:10.37,2013-03-08 04:38:00,
2013-03-07 23:43:00,34.1,32.6,29.97,NW,322,9.2,9.2,94,0.01,-SN,,0.03,WeatherDisplay:10.37,2013-03-08 04:43:00,
2013-03-07 23:49:00,34.0,32.5,29.97,NNW,329,9.2,9.2,94,0.01,-SN,,0.03,WeatherDisplay:10.37,2013-03-08 04:49:00,
2013-03-07 23:54:00,33.9,32.4,29.97,NNW,331,15.0,15.0,94,0.00,-SN,,0.03,WeatherDisplay:10.37,2013-03-08 04:54:00,
2013-03-07 23:59:00,33.9,32.4,29.97,NNW,346,13.8,13.8,94,0.00,-SN,,0.03,WeatherDisplay:10.37,2013-03-08 04:59:00,